Terminal Aerodrome Forecast
Issued by NWS

Home | Current Version | Previous Version | Text Only | Print | Product List | Glossary On
Versions: 1 2 3 4 5 6 7 8 9 10 11 12 13 14 15 16 17 18 19 20 21 22 23 24 25 26 27 28 29 30 31 32 33 34 35 36 37 38 39 40 41 42 43 44 45 46 47 48 49 50
000
FTAK31 PANC 060227 AAA
TAFASN
TAF AMD
PASN 060227Z 0602/0624 06013G20KT 3SM -SHRA BR OVC004
      TEMPO 0602/0606 1/2SM -SHRA FG VV002
     FM060600 09018G25KT 5SM -SHRA BR OVC004
     FM061200 10022G30KT 2SM -SHRA BR OVC004=

USA.gov is the U.S. government's official web portal to all federal, state and local government web resources and services.